This demonstration page uses our WeatherBlox Daily Observations layout. Learn more.

Left ArrowRight Arrow

Hourly Observations for January 21, 2022

Temp ( °F °C ) Dew Point ( °F °C ) Humidity (%) Winds ( mph kmh ) Pressure ( in mb ) Visibility ( mi km ) Precip ( " mm )
12:14 am 00:14 Windy with Snow Likely 34 1.1 28 -2.2 79 79 N 21 33 30.31 1026 5 8 0.00 0.00
12:27 am 00:27 Cloudy 34 1.1 28 -2.2 79 79 NNE 23 37 30.30 1026 8 13 0.00 0.00
12:59 am 00:59 Cloudy 34 1.1 27 -2.8 76 76 NNE 22 35 30.30 1026 10 16 0.00 0.00
1:21 am 01:21 Windy with Snow Likely 34 1.1 26 -3.3 73 73 N 22 35 30.31 1026 8 13 0.00 0.00
1:59 am 01:59 Windy with Snow Likely 34 1.1 25 -3.9 70 70 NNE 20 31 30.31 1027 6 10 0.00 0.00
2:59 am 02:59 Cloudy 33 0.6 22 -5.6 64 64 NNE 23 37 30.33 1027 10 16 0.00 0.00
3:59 am 03:59 Cloudy 32 0 21 -6.1 64 64 NNE 22 35 30.33 1027 10 16 0.00 0.00
4:59 am 04:59 Cloudy 31 -0.6 23 -5 72 72 NNE 20 31 30.35 1028 10 16 0.00 0.00
5:29 am 05:29 Cloudy 31 -0.6 23 -5 72 72 NNE 21 33 30.35 1028 10 16 0.00 0.00
5:52 am 05:52 Cloudy 30 -1.1 22 -5.6 72 72 NNE 20 31 30.36 1028 10 16 0.00 0.00
5:59 am 05:59 Cloudy 30 -1.1 22 -5.6 72 72 NNE 18 30 30.36 1028 10 16 0.00 0.00
6:49 am 06:49 Cloudy 30 -1.1 23 -5 75 75 N 22 35 30.40 1029 10 16 0.00 0.00
6:59 am 06:59 Cloudy 30 -1.1 23 -5 75 75 N 21 33 30.40 1029 10 16 0.00 0.00
7:59 am 07:59 Cloudy 29 -1.7 22 -5.6 75 75 NNE 17 28 30.41 1030 10 16 0.00 0.00
8:59 am 08:59 Cloudy 29 -1.7 23 -5 78 78 NNE 20 31 30.43 1031 10 16 0.00 0.00
9:59 am 09:59 Cloudy 29 -1.7 23 -5 78 78 NNE 21 33 30.47 1032 10 16 0.00 0.00
11:59 am 11:59 Cloudy 29 -1.7 24 -4.4 82 82 NNE 22 35 30.44 1031 10 16 0.00 0.00
12:59 pm 12:59 Cloudy 29 -1.7 24 -4.4 82 82 N 15 24 30.43 1030 10 16 0.00 0.00
1:59 pm 13:59 Cloudy 28 -2.2 23 -5 81 81 N 20 31 30.41 1030 10 16 0.00 0.00
2:59 pm 14:59 Cloudy 29 -1.7 24 -4.4 82 82 N 17 28 30.42 1030 10 16 0.00 0.00
3:59 pm 15:59 Cloudy 29 -1.7 24 -4.4 82 82 NNE 20 31 30.41 1030 10 16 0.00 0.00
4:59 pm 16:59 Windy with Snow Likely 29 -1.7 27 -2.8 92 92 N 21 33 30.42 1030 1 2 0.00 0.00
5:28 pm 17:28 Cloudy with Light Snow 29 -1.7 28 -2.2 96 96 N 18 30 30.42 1030 1 2 0.00 0.00
5:51 pm 17:51 Windy with Snow Likely 29 -1.7 27 -2.8 92 92 NNE 20 31 30.42 1030 2 3 0.00 0.00
5:59 pm 17:59 Windy with Snow Likely 29 -1.7 27 -2.8 92 92 N 21 33 30.42 1030 2 2 0.00 0.00
6:11 pm 18:11 Cloudy with Light Snow 29 -1.7 27 -2.8 92 92 NNE 17 28 30.42 1030 2 3 0.00 0.00
6:21 pm 18:21 Windy with Snow Likely 29 -1.7 27 -2.8 92 92 N 20 31 30.43 1031 2 3 0.00 0.00
6:59 pm 18:59 Windy with Snow Likely 29 -1.7 27 -2.8 92 92 N 21 33 30.42 1030 2 3 0.00 0.00
7:18 pm 19:18 Cloudy with Light Snow 29 -1.7 27 -2.8 92 92 NNE 15 24 30.42 1030 2 2 0.00 0.00
7:35 pm 19:35 Windy with Snow Likely 29 -1.7 27 -2.8 92 92 NNE 22 35 30.42 1030 2 3 0.00 0.00
7:59 pm 19:59 Windy with Snow Likely 29 -1.7 28 -2.2 96 96 NNE 20 31 30.42 1030 2 2 0.00 0.00
8:59 pm 20:59 Cloudy with Light Snow 28 -2.2 27 -2.8 96 96 NNE 18 30 30.42 1030 2 2 0.00 0.00
9:22 pm 21:22 Windy with Snow Likely 28 -2.2 27 -2.8 96 96 NNE 22 35 30.42 1030 1 2 0.00 0.00
9:36 pm 21:36 Windy with Snow Likely 28 -2.2 27 -2.8 96 96 NNE 23 37 30.41 1030 1 2 0.00 0.00
9:57 pm 21:57 Windy with Snow Likely 28 -2 27 -3 93 93 NNE 22 35 30.40 1029 1 2 0.00 0.00
9:59 pm 21:59 Windy with Snow Likely 28 -2.2 27 -2.8 96 96 N 23 37 30.41 1030 1 2 0.00 0.00
10:07 pm 22:07 Windy with Snow Likely 28 -2.2 27 -2.8 96 96 NNE 24 39 30.41 1030 1 2 0.00 0.00
10:22 pm 22:22 Cloudy with Light Snow 28 -2.2 27 -2.8 96 96 N 18 30 30.40 1029 1 1 0.00 0.00
10:43 pm 22:43 Windy with Snow Likely 28 -2.2 27 -2.8 96 96 N 21 33 30.40 1029 1 2 0.00 0.00
10:59 pm 22:59 Windy with Snow Likely 28 -2.2 27 -2.8 96 96 N 20 31 30.40 1029 1 2 0.00 0.00
11:15 pm 23:15 Cloudy with Light Snow 28 -2.2 27 -2.8 96 96 N 17 28 30.39 1029 1 1 0.00 0.00
11:38 pm 23:38 Cloudy with Light Snow 28 -2.2 28 -2.2 100 100 N 17 28 30.38 1029 1 1 0.01 0.25
11:48 pm 23:48 Windy with Snow Likely 28 -2.2 28 -2.2 100 100 N 20 31 30.37 1028 1 1 0.01 0.25
11:59 pm 23:59 Cloudy with Light Snow 28 -2.2 27 -2.8 96 96 N 17 28 30.37 1028 1 1 0.01 0.25

Powered by AerisWeather